Lid_Strength_Index
6 5 5 4 4 3 3 3 2 2 2 2 1 1 1 1 1 1 1 1 2 1 1 2 1 0 1 0 0 0 0 1 1
6 6 5 5 4 3 3 3 2 2 2 2 1 1 1 1 1 1 1 1 1 1 1 0 1 0 0 0 1 0 1 1 1
7 6 5 4 4 3 3 2 2 2 1 2 1 1 1 1 1 1 1 1 1 1 1 0 1 1 0 0 1 1 1 1 1
7 6 5 5 4 3 3 2 2 2 1 2 2 1 1 1 1 1 1 1 1 1 1 1 1 1 1 1 1 1 1 1 1
6 5 5 4 4 3 3 3 2 2 2 2 2 2 2 1 1 1 1 1 1 1 2 1 1 1 2 2 1 1 1 1 1
6 5 5 5 4 4 3 3 3 2 2 2 1 2 2 1 1 1 1 1 1 1 2 1 1 2 3 3 1 1 1 1 1
6 6 5 5 5 5 4 3 3 2 2 1 1 1 2 3 2 2 2 1 1 1 1 2 1 1 1 1 1 1 1 1 2
6 6 6 6 6 5 4 3 3 2 2 2 1 1 2 1 1 2 1 1 1 1 1 1 1 1 1 1 1 0 1 1 1
7 6 7 6 6 5 5 4 4 4 3 2 2 2 2 1 1 1 1 2 3 2 2 2 1 1 1 1 0 3 4 2 1
6 7 8 8 7 6 5 4 4 4 3 3 3 3 3 2 2 2 1 1 1 2 3 2 2 2 2 1 1 4 5 5 3
7 8 8 8 8 8 8 5 2 3 3 3 3 3 3 2 2 3 2 2 2 2 2 2 3 2 2 2 1 4 5 5 3
9 9 9 8 8 8 7 7 6 6 7 6 6 6 5 4 3 3 3 3 2 2 1 2 1 1 2 2 1 5 6 5 3
8 7 7 7 7 7 7 7 7 7 8 8 8 7 7 6 5 5 4 4 4 2 3 2 1 2 1 2 1 8 8 6 3
8 7 7 6 6 6 6 5 6 6 6 7 7 7 6 6 6 5 4 4 4 3 4 5 4 3 2 2 3 5 7 7 4
7 7 6 6 6 6 6 6 6 7 7 6 5 6 6 6 5 4 4 3 3 3 3 4 4 3 2 1 2 6 8 8 8
8 7 7 6 7 7 7 7 7 7 7 6 7 7 7 7 7 6 6 5 4 4 4 4 5 5 5 6 5 3 8 8 7
7 7 6 6 7 7 8 7 7 8 7 7 8 8 8 8 8 8 8 6 5 5 6 7 6 6 6 5 5 5 4 3 7
7 7 7 7 7 8 8 8 8 8 8 8 9 9 9 9 9 9 8 8 7 7 7 8 8 7 7 7 6 6 8 9 7
7 7 7 8 8 8 8 9 9 8 8 8 9 9 9 9 10 10 9 9 9 8 8 9 10 10 10 7 8 10 10 11 10
5 6 6 6 7 7 7 8 8 8 8 8 9 10 10 10 10 10 10 10 10 10 9 8 9 10 10 10 11 11 11 11 11